Time,TemperatureF,DewpointF,PressureIn,WindDirection,WindDirectionDegrees,WindSpeedMPH,WindSpeedGustMPH,Humidity,HourlyPrecipIn,Conditions,Clouds,dailyrainin,SoftwareType,DateUTC
2013-05-13 00:02:00,46.0,27.0,30.11,North,0,0.0,-999.0,45,-99.99,,,-99.99,,2013-05-13 05:02:00,
2013-05-13 00:12:00,48.0,27.0,30.11,North,0,0.0,-999.0,42,-99.99,,,-99.99,,2013-05-13 05:12:00,
2013-05-13 00:21:00,48.0,27.0,30.11,North,0,0.0,-999.0,42,-99.99,,,-99.99,,2013-05-13 05:21:00,
2013-05-13 00:32:00,48.0,27.0,30.11,North,0,0.0,-999.0,42,-99.99,,,-99.99,,2013-05-13 05:32:00,
2013-05-13 00:42:00,48.0,27.0,30.11,North,0,0.0,-999.0,42,-99.99,,,-99.99,,2013-05-13 05:42:00,
2013-05-13 00:51:00,52.0,25.0,30.11,North,0,0.0,-999.0,34,-99.99,,,-99.99,,2013-05-13 05:51:00,
2013-05-13 01:01:00,52.0,25.0,30.11,North,0,0.0,-999.0,34,-99.99,,,-99.99,,2013-05-13 06:01:00,
2013-05-13 01:11:00,52.0,25.0,30.10,North,0,0.0,-999.0,34,-99.99,,,-99.99,,2013-05-13 06:11:00,
2013-05-13 01:21:00,52.0,25.0,30.10,North,0,0.0,-999.0,34,-99.99,,,-99.99,,2013-05-13 06:21:00,
2013-05-13 01:31:00,50.0,27.0,30.11,North,0,0.0,-999.0,39,-99.99,,,-99.99,,2013-05-13 06:31:00,
2013-05-13 01:42:00,50.0,27.0,30.11,North,0,0.0,-999.0,39,-99.99,,,-99.99,,2013-05-13 06:42:00,
2013-05-13 01:52:00,50.0,27.0,30.11,South,170,6.0,-999.0,39,-99.99,,,-99.99,,2013-05-13 06:52:00,
2013-05-13 02:01:00,50.0,27.0,30.11,South,170,6.0,-999.0,39,-99.99,,,-99.99,,2013-05-13 07:01:00,
2013-05-13 02:11:00,52.0,27.0,30.10,South,170,6.0,-999.0,37,-99.99,,,-99.99,,2013-05-13 07:11:00,
2013-05-13 02:22:00,52.0,27.0,30.10,South,170,6.0,-999.0,37,-99.99,,,-99.99,,2013-05-13 07:22:00,
2013-05-13 02:31:00,52.0,27.0,30.10,South,190,6.0,-999.0,37,-99.99,,,-99.99,,2013-05-13 07:31:00,
2013-05-13 02:41:00,52.0,27.0,30.10,South,190,6.0,-999.0,37,-99.99,,,-99.99,,2013-05-13 07:41:00,
2013-05-13 02:52:00,50.0,27.0,30.09,SSE,150,7.0,-999.0,39,-99.99,,,-99.99,,2013-05-13 07:52:00,
2013-05-13 03:02:00,50.0,27.0,30.09,SSE,150,7.0,-999.0,39,-99.99,,,-99.99,,2013-05-13 08:02:00,
2013-05-13 03:11:00,52.0,25.0,30.09,SE,140,8.0,-999.0,34,-99.99,,,-99.99,,2013-05-13 08:11:00,
2013-05-13 03:21:00,52.0,25.0,30.09,SE,140,8.0,-999.0,34,-99.99,,,-99.99,,2013-05-13 08:21:00,
2013-05-13 03:31:00,52.0,25.0,30.09,SE,140,6.0,-999.0,34,-99.99,,,-99.99,,2013-05-13 08:31:00,
2013-05-13 03:42:00,52.0,25.0,30.09,SE,140,6.0,-999.0,34,-99.99,,,-99.99,,2013-05-13 08:42:00,
2013-05-13 03:51:00,52.0,27.0,30.08,SSE,150,5.0,-999.0,37,-99.99,,,-99.99,,2013-05-13 08:51:00,
2013-05-13 04:01:00,52.0,27.0,30.08,SSE,150,5.0,-999.0,37,-99.99,,,-99.99,,2013-05-13 09:01:00,
2013-05-13 04:11:00,50.0,25.0,30.08,SSE,160,8.0,-999.0,37,-99.99,,,-99.99,,2013-05-13 09:11:00,
2013-05-13 04:21:00,50.0,25.0,30.08,SSE,160,8.0,-999.0,37,-99.99,,,-99.99,,2013-05-13 09:21:00,
2013-05-13 04:33:00,52.0,25.0,30.07,SE,140,8.0,-999.0,34,-99.99,,,-99.99,,2013-05-13 09:33:00,
2013-05-13 04:42:00,52.0,25.0,30.07,SE,140,8.0,-999.0,34,-99.99,,,-99.99,,2013-05-13 09:42:00,
2013-05-13 04:52:00,50.0,25.0,30.08,SSE,150,7.0,-999.0,37,-99.99,,,-99.99,,2013-05-13 09:52:00,
2013-05-13 05:03:00,50.0,25.0,30.08,SSE,150,7.0,-999.0,37,-99.99,,,-99.99,,2013-05-13 10:03:00,
2013-05-13 05:12:00,50.0,25.0,30.08,SSE,150,7.0,-999.0,37,-99.99,,,-99.99,,2013-05-13 10:12:00,
2013-05-13 05:22:00,50.0,25.0,30.08,SSE,150,7.0,-999.0,37,-99.99,,,-99.99,,2013-05-13 10:22:00,
2013-05-13 05:32:00,50.0,25.0,30.07,SE,140,7.0,-999.0,37,-99.99,,,-99.99,,2013-05-13 10:32:00,
2013-05-13 05:42:00,50.0,25.0,30.07,SE,140,7.0,-999.0,37,-99.99,,,-99.99,,2013-05-13 10:42:00,
2013-05-13 05:52:00,48.0,27.0,30.06,South,170,6.0,-999.0,42,-99.99,,,-99.99,,2013-05-13 10:52:00,
2013-05-13 06:02:00,48.0,27.0,30.06,South,170,6.0,-999.0,42,-99.99,,,-99.99,,2013-05-13 11:02:00,
2013-05-13 06:12:00,48.0,27.0,30.05,SSE,160,8.0,-999.0,42,-99.99,,,-99.99,,2013-05-13 11:12:00,
2013-05-13 06:21:00,48.0,27.0,30.05,SSE,160,8.0,-999.0,42,-99.99,,,-99.99,,2013-05-13 11:21:00,
2013-05-13 06:32:00,48.0,27.0,30.04,South,170,8.0,-999.0,42,-99.99,,,-99.99,,2013-05-13 11:32:00,
2013-05-13 06:42:00,48.0,27.0,30.04,South,170,8.0,-999.0,42,-99.99,,,-99.99,,2013-05-13 11:42:00,
2013-05-13 06:51:00,50.0,27.0,30.04,South,170,10.0,16.0,39,-99.99,,,-99.99,,2013-05-13 11:51:00,
2013-05-13 07:01:00,50.0,27.0,30.04,South,170,10.0,16.0,39,-99.99,,,-99.99,,2013-05-13 12:01:00,
2013-05-13 07:11:00,50.0,27.0,30.04,South,170,10.0,16.0,39,-99.99,,,-99.99,,2013-05-13 12:11:00,
2013-05-13 07:21:00,50.0,27.0,30.04,South,170,10.0,16.0,39,-99.99,,,-99.99,,2013-05-13 12:21:00,
2013-05-13 07:32:00,50.0,28.0,30.04,SSE,150,9.0,-999.0,43,-99.99,,,-99.99,,2013-05-13 12:32:00,
2013-05-13 07:42:00,50.0,28.0,30.04,SSE,150,9.0,-999.0,43,-99.99,,,-99.99,,2013-05-13 12:42:00,
2013-05-13 07:52:00,52.0,30.0,30.03,SE,140,10.0,16.0,43,-99.99,,,-99.99,,2013-05-13 12:52:00,
2013-05-13 08:01:00,52.0,30.0,30.03,SE,140,10.0,16.0,43,-99.99,,,-99.99,,2013-05-13 13:01:00,
2013-05-13 08:11:00,52.0,34.0,30.03,SE,140,12.0,16.0,50,-99.99,,,-99.99,,2013-05-13 13:11:00,
2013-05-13 08:21:00,52.0,34.0,30.03,SE,140,12.0,16.0,50,-99.99,,,-99.99,,2013-05-13 13:21:00,
2013-05-13 08:31:00,54.0,34.0,30.03,SSE,160,10.0,17.0,46,-99.99,,,-99.99,,2013-05-13 13:31:00,
2013-05-13 08:42:00,54.0,34.0,30.03,SSE,160,10.0,17.0,46,-99.99,,,-99.99,,2013-05-13 13:42:00,
2013-05-13 08:52:00,54.0,36.0,30.02,SSE,150,9.0,-999.0,50,-99.99,,,-99.99,,2013-05-13 13:52:00,
2013-05-13 09:02:00,54.0,36.0,30.02,SSE,150,9.0,-999.0,50,-99.99,,,-99.99,,2013-05-13 14:02:00,
2013-05-13 09:11:00,55.0,37.0,30.02,SSE,160,12.0,18.0,50,-99.99,,,-99.99,,2013-05-13 14:11:00,
2013-05-13 09:22:00,55.0,37.0,30.02,SSE,160,12.0,18.0,50,-99.99,,,-99.99,,2013-05-13 14:22:00,
2013-05-13 09:31:00,57.0,39.0,30.01,SSE,160,12.0,18.0,50,-99.99,,,-99.99,,2013-05-13 14:31:00,
2013-05-13 09:41:00,57.0,39.0,30.01,SSE,160,12.0,18.0,50,-99.99,,,-99.99,,2013-05-13 14:41:00,
2013-05-13 09:51:00,61.0,43.0,29.99,SSE,150,14.0,18.0,51,-99.99,,,-99.99,,2013-05-13 14:51:00,
2013-05-13 10:01:00,61.0,43.0,29.99,SSE,150,14.0,18.0,51,-99.99,,,-99.99,,2013-05-13 15:01:00,
2013-05-13 10:11:00,63.0,45.0,29.99,North,350,14.0,22.0,51,-99.99,,,-99.99,,2013-05-13 15:11:00,
2013-05-13 10:21:00,63.0,45.0,29.99,North,350,14.0,22.0,51,-99.99,,,-99.99,,2013-05-13 15:21:00,
2013-05-13 10:31:00,64.0,45.0,29.97,South,180,15.0,22.0,48,-99.99,,,-99.99,,2013-05-13 15:31:00,
2013-05-13 10:42:00,64.0,45.0,29.97,South,180,15.0,22.0,48,-99.99,,,-99.99,,2013-05-13 15:42:00,
2013-05-13 10:52:00,64.0,45.0,29.97,South,170,13.0,23.0,48,-99.99,,,-99.99,,2013-05-13 15:52:00,
2013-05-13 11:03:00,64.0,45.0,29.97,South,170,13.0,23.0,48,-99.99,,,-99.99,,2013-05-13 16:03:00,
2013-05-13 11:11:00,66.0,45.0,29.97,SSE,160,16.0,21.0,45,-99.99,,,-99.99,,2013-05-13 16:11:00,
2013-05-13 11:21:00,66.0,45.0,29.97,SSE,160,16.0,21.0,45,-99.99,,,-99.99,,2013-05-13 16:21:00,
2013-05-13 11:33:00,66.0,45.0,29.97,SSE,160,16.0,21.0,45,-99.99,,,-99.99,,2013-05-13 16:33:00,
2013-05-13 11:42:00,66.0,45.0,29.97,SSE,160,16.0,21.0,45,-99.99,,,-99.99,,2013-05-13 16:42:00,
2013-05-13 11:52:00,70.0,46.0,29.95,South,180,16.0,23.0,43,-99.99,,,-99.99,,2013-05-13 16:52:00,
2013-05-13 12:02:00,70.0,46.0,29.95,South,180,16.0,23.0,43,-99.99,,,-99.99,,2013-05-13 17:02:00,
2013-05-13 12:12:00,72.0,46.0,29.94,South,190,16.0,31.0,40,-99.99,,,-99.99,,2013-05-13 17:12:00,
2013-05-13 12:21:00,72.0,46.0,29.94,South,190,16.0,31.0,40,-99.99,,,-99.99,,2013-05-13 17:21:00,
2013-05-13 12:32:00,73.0,46.0,29.93,SE,140,17.0,23.0,38,-99.99,,,-99.99,,2013-05-13 17:32:00,
2013-05-13 12:42:00,73.0,46.0,29.93,SE,140,17.0,23.0,38,-99.99,,,-99.99,,2013-05-13 17:42:00,
2013-05-13 12:54:00,73.0,46.0,29.92,SSW,200,18.0,25.0,38,-99.99,,,-99.99,,2013-05-13 17:54:00,
2013-05-13 13:03:00,73.0,46.0,29.92,SSW,200,18.0,25.0,38,-99.99,,,-99.99,,2013-05-13 18:03:00,
2013-05-13 13:12:00,73.0,46.0,29.92,SSW,200,18.0,25.0,38,-99.99,,,-99.99,,2013-05-13 18:12:00,
2013-05-13 13:23:00,73.0,46.0,29.92,SSW,200,18.0,25.0,38,-99.99,,,-99.99,,2013-05-13 18:23:00,
2013-05-13 13:32:00,75.0,46.0,29.90,South,190,17.0,30.0,35,-99.99,,,-99.99,,2013-05-13 18:32:00,
2013-05-13 13:42:00,75.0,46.0,29.90,South,190,17.0,30.0,35,-99.99,,,-99.99,,2013-05-13 18:42:00,
2013-05-13 13:52:00,79.0,46.0,29.88,South,190,18.0,27.0,31,-99.99,,,-99.99,,2013-05-13 18:52:00,
2013-05-13 14:01:00,79.0,46.0,29.88,South,190,18.0,27.0,31,-99.99,,,-99.99,,2013-05-13 19:01:00,
2013-05-13 14:11:00,79.0,46.0,29.88,South,190,18.0,27.0,31,-99.99,,,-99.99,,2013-05-13 19:11:00,
2013-05-13 14:21:00,79.0,46.0,29.88,South,190,18.0,27.0,31,-99.99,,,-99.99,,2013-05-13 19:21:00,
2013-05-13 14:32:00,82.0,48.0,29.85,South,190,18.0,32.0,30,-99.99,,,-99.99,,2013-05-13 19:32:00,
2013-05-13 14:44:00,82.0,48.0,29.85,South,190,18.0,32.0,30,-99.99,,,-99.99,,2013-05-13 19:44:00,
2013-05-13 14:53:00,82.0,46.0,29.85,SSW,200,25.0,33.0,28,-99.99,,,-99.99,,2013-05-13 19:53:00,
2013-05-13 15:01:00,82.0,46.0,29.85,SSW,200,25.0,33.0,28,-99.99,,,-99.99,,2013-05-13 20:01:00,
2013-05-13 15:11:00,84.0,48.0,29.85,SW,220,21.0,32.0,28,-99.99,,,-99.99,,2013-05-13 20:11:00,
2013-05-13 15:23:00,84.0,48.0,29.85,SW,220,21.0,32.0,28,-99.99,,,-99.99,,2013-05-13 20:23:00,
2013-05-13 15:33:00,84.0,46.0,29.84,SW,220,24.0,29.0,26,-99.99,,,-99.99,,2013-05-13 20:33:00,
2013-05-13 15:44:00,84.0,46.0,29.84,SW,220,24.0,29.0,26,-99.99,,,-99.99,,2013-05-13 20:44:00,
2013-05-13 15:53:00,84.0,46.0,29.84,SW,230,20.0,25.0,26,-99.99,,,-99.99,,2013-05-13 20:53:00,
2013-05-13 16:03:00,84.0,46.0,29.84,SW,230,20.0,25.0,26,-99.99,,,-99.99,,2013-05-13 21:03:00,
2013-05-13 16:14:00,84.0,46.0,29.84,SW,230,20.0,25.0,26,-99.99,,,-99.99,,2013-05-13 21:14:00,
2013-05-13 16:23:00,84.0,46.0,29.84,SW,230,20.0,25.0,26,-99.99,,,-99.99,,2013-05-13 21:23:00,
2013-05-13 16:33:00,88.0,48.0,29.82,WSW,250,12.0,24.0,25,-99.99,,,-99.99,,2013-05-13 21:33:00,
2013-05-13 16:43:00,88.0,48.0,29.82,WSW,250,12.0,24.0,25,-99.99,,,-99.99,,2013-05-13 21:43:00,
2013-05-13 16:53:00,88.0,50.0,29.81,WSW,240,14.0,24.0,27,-99.99,,,-99.99,,2013-05-13 21:53:00,
2013-05-13 17:02:00,88.0,50.0,29.81,WSW,240,14.0,24.0,27,-99.99,,,-99.99,,2013-05-13 22:02:00,
2013-05-13 17:12:00,88.0,50.0,29.81,WSW,240,14.0,24.0,27,-99.99,,,-99.99,,2013-05-13 22:12:00,
2013-05-13 17:23:00,88.0,50.0,29.81,WSW,240,14.0,24.0,27,-99.99,,,-99.99,,2013-05-13 22:23:00,
2013-05-13 17:32:00,90.0,52.0,29.80,WSW,250,16.0,24.0,27,-99.99,,,-99.99,,2013-05-13 22:32:00,
2013-05-13 17:43:00,90.0,52.0,29.80,WSW,250,16.0,24.0,27,-99.99,,,-99.99,,2013-05-13 22:43:00,
2013-05-13 17:52:00,90.0,52.0,29.80,WSW,240,13.0,18.0,27,-99.99,,,-99.99,,2013-05-13 22:52:00,
2013-05-13 18:02:00,90.0,52.0,29.80,WSW,240,13.0,18.0,27,-99.99,,,-99.99,,2013-05-13 23:02:00,
2013-05-13 18:12:00,90.0,52.0,29.79,WSW,240,10.0,16.0,27,-99.99,,,-99.99,,2013-05-13 23:12:00,
2013-05-13 18:23:00,90.0,52.0,29.79,WSW,240,10.0,16.0,27,-99.99,,,-99.99,,2013-05-13 23:23:00,
2013-05-13 18:33:00,90.0,50.0,29.79,West,280,12.0,-999.0,25,-99.99,,,-99.99,,2013-05-13 23:33:00,
2013-05-13 18:42:00,90.0,50.0,29.79,West,280,12.0,-999.0,25,-99.99,,,-99.99,,2013-05-13 23:42:00,
2013-05-13 18:53:00,90.0,48.0,29.79,West,280,12.0,-999.0,24,-99.99,,,-99.99,,2013-05-13 23:53:00,
2013-05-13 19:02:00,90.0,48.0,29.79,West,280,12.0,-999.0,24,-99.99,,,-99.99,,2013-05-14 00:02:00,
2013-05-13 19:12:00,90.0,48.0,29.79,West,280,12.0,-999.0,24,-99.99,,,-99.99,,2013-05-14 00:12:00,
2013-05-13 19:22:00,90.0,48.0,29.79,West,280,12.0,-999.0,24,-99.99,,,-99.99,,2013-05-14 00:22:00,
2013-05-13 19:31:00,90.0,50.0,29.78,West,280,8.0,-999.0,25,-99.99,,,-99.99,,2013-05-14 00:31:00,
2013-05-13 19:42:00,90.0,50.0,29.78,West,280,8.0,-999.0,25,-99.99,,,-99.99,,2013-05-14 00:42:00,
2013-05-13 19:52:00,88.0,48.0,29.78,West,270,5.0,-999.0,25,-99.99,,,-99.99,,2013-05-14 00:52:00,
2013-05-13 20:01:00,88.0,48.0,29.78,West,270,5.0,-999.0,25,-99.99,,,-99.99,,2013-05-14 01:01:00,
2013-05-13 20:11:00,86.0,48.0,29.79,North,0,0.0,-999.0,27,-99.99,,,-99.99,,2013-05-14 01:11:00,
2013-05-13 20:21:00,86.0,48.0,29.79,North,0,0.0,-999.0,27,-99.99,,,-99.99,,2013-05-14 01:21:00,
2013-05-13 20:32:00,84.0,46.0,29.78,SW,230,5.0,-999.0,26,-99.99,,,-99.99,,2013-05-14 01:32:00,
2013-05-13 20:43:00,84.0,46.0,29.78,SW,230,5.0,-999.0,26,-99.99,,,-99.99,,2013-05-14 01:43:00,
2013-05-13 20:52:00,82.0,48.0,29.78,SW,230,6.0,-999.0,30,-99.99,,,-99.99,,2013-05-14 01:52:00,
2013-05-13 21:02:00,82.0,48.0,29.78,SW,230,6.0,-999.0,30,-99.99,,,-99.99,,2013-05-14 02:02:00,
2013-05-13 21:11:00,81.0,48.0,29.78,SW,230,6.0,-999.0,32,-99.99,,,-99.99,,2013-05-14 02:11:00,
2013-05-13 21:22:00,81.0,48.0,29.78,SW,230,6.0,-999.0,32,-99.99,,,-99.99,,2013-05-14 02:22:00,
2013-05-13 21:32:00,77.0,48.0,29.79,North,0,0.0,-999.0,36,-99.99,,,-99.99,,2013-05-14 02:32:00,
2013-05-13 21:42:00,77.0,48.0,29.79,North,0,0.0,-999.0,36,-99.99,,,-99.99,,2013-05-14 02:42:00,
2013-05-13 21:51:00,73.0,48.0,29.79,West,280,5.0,-999.0,40,-99.99,,,-99.99,,2013-05-14 02:51:00,
2013-05-13 22:01:00,73.0,48.0,29.79,West,280,5.0,-999.0,40,-99.99,,,-99.99,,2013-05-14 03:01:00,
2013-05-13 22:11:00,72.0,48.0,29.80,West,280,5.0,-999.0,43,-99.99,,,-99.99,,2013-05-14 03:11:00,
2013-05-13 22:21:00,72.0,48.0,29.80,West,280,5.0,-999.0,43,-99.99,,,-99.99,,2013-05-14 03:21:00,
2013-05-13 22:33:00,70.0,48.0,29.81,North,0,0.0,-999.0,46,-99.99,,,-99.99,,2013-05-14 03:33:00,
2013-05-13 22:42:00,70.0,48.0,29.81,North,0,0.0,-999.0,46,-99.99,,,-99.99,,2013-05-14 03:42:00,
2013-05-13 22:52:00,70.0,48.0,29.81,North,0,0.0,-999.0,46,-99.99,,,-99.99,,2013-05-14 03:52:00,
2013-05-13 23:02:00,70.0,48.0,29.81,North,0,0.0,-999.0,46,-99.99,,,-99.99,,2013-05-14 04:02:00,
2013-05-13 23:13:00,68.0,48.0,29.81,North,0,0.0,-999.0,49,-99.99,,,-99.99,,2013-05-14 04:13:00,
2013-05-13 23:23:00,68.0,48.0,29.81,North,0,0.0,-999.0,49,-99.99,,,-99.99,,2013-05-14 04:23:00,
2013-05-13 23:32:00,66.0,48.0,29.81,North,0,0.0,-999.0,52,-99.99,,,-99.99,,2013-05-14 04:32:00,
2013-05-13 23:43:00,66.0,48.0,29.81,North,0,0.0,-999.0,52,-99.99,,,-99.99,,2013-05-14 04:43:00,
2013-05-13 23:52:00,64.0,48.0,29.81,North,0,0.0,-999.0,55,-99.99,,,-99.99,,2013-05-14 04:52:00,